Location: Ford County Road and Bridge Department
(37.7686°N, 99.9762°W)
Time: 18:39:55
(UTC+00:00)

Cosmos 1812 Rocket - Pass Details

Date: 18 January 2020
Orbit: 606 x 632 km, 82.5° (Epoch: 25 February)

Event Time Altitude Azimuth Distance (km) Brightness Sun altitude
Rises 01:12:47 0° 351° (N) 2,923 7.0 -16.8°
Reaches altitude 10° 01:15:01 10° 350° (N) 2,014 6.2 -17.3°
Maximum altitude 01:19:29 77° 266° (W) 650 3.7 -18.1°
Drops below altitude 10° 01:23:56 10° 179° (S) 2,005 6.3 -19.0°
Sets 01:26:09 0° 178° (S) 2,908 7.1 -19.4°
